Lid_Strength_Index
2 1 1 1 1 1 1 1 1 1 1 1 1 2 1 1 5 8 9 5 4 1 3 8 9 10 10 12 11 12 15 17 16 17 16 15 15 14 13 14 14 13 13 11 10
2 1 1 1 1 1 1 2 1 1 1 1 1 1 1 2 9 11 5 2 2 2 9 10 11 11 13 13 13 15 17 17 17 16 17 16 15 15 14 15 14 13 11 10 10
2 1 0 0 0 1 1 1 2 2 2 2 2 2 2 4 12 12 4 3 2 4 8 9 10 11 14 13 14 15 17 16 16 15 15 15 15 14 15 16 15 15 13 11 10
1 1 1 0 -0 0 1 1 2 3 3 3 2 2 2 9 16 10 4 4 4 7 9 10 12 14 15 16 13 17 14 15 14 13 14 15 14 15 15 14 13 13 12 11 11
2 1 1 0 0 -0 1 1 2 3 3 3 3 3 8 14 13 9 6 6 8 9 10 12 13 14 15 14 14 15 15 14 13 13 14 14 15 15 15 14 13 13 12 12 12
2 1 1 1 1 0 1 1 2 3 4 4 3 4 12 16 10 10 10 9 9 10 11 11 12 12 14 14 15 14 14 14 14 14 14 15 15 15 14 14 14 13 12 12 12
2 1 1 1 1 1 1 2 2 3 4 4 4 10 13 15 11 11 10 10 9 10 11 10 10 12 13 14 13 14 16 15 15 14 15 15 17 17 14 13 13 13 13 12 12
1 2 1 1 1 1 2 3 3 4 3 3 6 12 15 10 11 10 9 9 8 8 9 9 9 11 13 13 15 17 17 19 16 15 14 15 18 16 14 15 14 14 13 13 12
1 1 1 1 1 2 2 4 4 4 5 7 12 14 16 9 12 10 10 10 9 9 9 8 11 14 13 16 19 19 22 19 18 15 15 15 18 15 14 14 14 14 14 14 13
1 1 1 1 1 2 3 5 5 7 9 10 11 14 14 15 12 11 10 9 10 10 11 12 14 17 18 19 21 22 21 19 20 17 16 18 18 15 15 15 15 15 15 14 13
1 1 1 1 2 4 8 8 10 10 12 16 16 16 15 13 11 12 10 11 12 13 16 15 18 20 19 18 19 19 19 20 19 17 17 18 18 16 14 16 16 16 15 14 14
0 0 1 1 3 5 10 13 13 12 14 13 15 15 14 13 15 13 10 14 16 18 16 18 20 17 16 16 17 18 22 22 18 17 17 19 19 16 16 16 15 15 15 14 14
0 1 2 2 5 9 12 12 11 12 15 13 16 15 15 13 15 14 12 14 18 20 20 19 17 15 16 17 18 19 21 22 20 18 18 20 20 19 16 15 14 14 14 15 14
1 2 3 2 6 10 13 10 10 11 19 15 16 15 14 14 15 12 12 13 16 20 18 18 15 16 17 17 17 21 17 17 19 23 25 20 25 19 18 17 15 14 15 15 15
2 3 3 4 8 11 11 10 11 12 23 16 17 13 13 15 15 14 12 14 16 18 19 19 17 17 19 17 16 19 17 18 20 24 25 24 26 21 18 18 17 16 15 15 15
3 4 3 6 10 11 10 11 11 17 23 19 17 17 15 15 15 14 14 13 14 16 17 19 16 16 17 16 16 17 20 21 24 28 28 28 26 22 20 18 17 16 15 15 14
3 4 6 7 9 9 10 11 18 22 17 18 18 16 17 17 16 16 16 17 19 22 24 20 18 16 15 17 16 19 25 27 27 29 26 32 26 20 18 18 17 16 15 15 15
3 5 7 8 9 9 10 15 23 22 22 14 17 16 17 17 17 17 17 19 18 19 26 26 23 21 15 17 21 20 24 26 30 28 27 30 27 19 17 16 16 16 16 15 15
3 7 8 8 7 8 11 20 19 19 14 15 15 19 19 17 18 19 19 20 17 19 22 25 23 17 15 15 18 21 25 21 29 34 31 27 24 19 17 20 17 17 16 16 15
4 6 9 8 8 8 14 17 18 13 15 15 17 17 22 21 18 21 19 17 16 16 19 21 24 21 17 16 17 21 19 24 27 29 31 28 31 22 21 21 22 19 20 18 17
4 9 8 8 7 9 15 16 14 11 13 15 15 18 17 20 19 22 18 16 16 17 17 21 23 23 18 21 22 21 23 24 24 24 28 30 24 22 22 21 20 20 19 19 19
7 14 8 8 12 11 12 12 10 12 13 13 14 14 17 18 18 22 19 17 15 17 18 17 21 26 23 19 17 18 21 20 23 26 28 25 23 21 21 25 27 20 18 17 19
9 9 9 9 13 18 12 13 11 12 14 14 15 12 14 15 18 16 17 14 14 15 17 16 24 27 22 20 19 21 19 19 21 21 27 26 21 21 26 24 20 22 18 16 20
10 13 12 11 10 12 14 15 12 12 13 12 13 13 15 16 15 15 15 14 13 14 12 13 19 22 22 22 24 23 20 18 19 25 22 22 18 15 14 14 15 17 18 19 20
9 12 12 13 12 11 11 12 14 14 12 13 16 14 15 15 17 18 15 14 13 12 13 14 22 20 21 21 23 21 22 19 21 20 22 17 21 16 14 14 14 18 17 18 19
10 12 11 11 12 13 12 13 13 12 12 13 17 14 14 16 14 15 15 14 15 14 14 15 20 23 25 19 18 21 19 19 18 19 20 18 19 14 13 13 16 18 19 19 19
11 9 9 11 12 13 13 13 13 12 11 10 12 13 14 13 12 12 12 12 12 15 15 16 21 24 24 23 24 23 21 18 22 23 19 23 17 24 17 20 20 18 21 19 18